Terug naar catalogus

STARLINK-4104

ActiefCommunicatieVLEO
NORAD 53163·PAYLOAD·🇺🇸 United States

Gelanceerd Jul 17, 2022 vanaf Cape Canaveral Space Force Station

Loading…

Volgende Passages (komende 24 uur)

TLE

VersSource: CelesTrak SupGP

Epoch: Sep 14, 2026, 20:38 UTC

1 53163C 22083AH  26257.86020833  .00038389  00000+0  11344-2 0  2577
2 53163  53.1597  29.9740 0001163  81.3130 263.4372 15.34367910    15

Volg STARLINK-4104 in realtime met AllMySat

Download on the App Store